User: anonymous   Login
Location: Unspecified
(0.0000°N, 0.0000°E)
Time: 05:15:25
(UTC+00:00)
Language:

ARKYD 6A - Orbit

View from above orbital plane
View from above orbital plane
View from above satellite
View from above satellite

Ground track
Ground track

The orbit data is extracted from the following two-line orbital elements,

1 43130U 18004V   18344.82735564  .00001057  00000-0  48145-4 0  9993
2 43130  97.5138  47.7463 0009619 190.8502 169.2528 15.22876735 50595
Epoch (UTC): 10 December 2018 19:51:23
Eccentricity: 0.0009619
inclination: 97.5138°
perigee height: 490 km
apogee height: 504 km
right ascension of ascending node: 47.7463°
argument of perigee: 190.8502°
revolutions per day: 15.22876735
mean anomaly at epoch: 169.2528°
orbit number at epoch: 5059

The dashed part of the orbit path shows where the satellite is in the earth's shadow,  

DLR